[Date Prev][Date Next][Thread Prev][Thread Next] - [Date Index][Thread Index][Author Index]

2 Line ISS Keps 11-2



ISS
1 25544U 98067A   04307.37949947  .00037500  00000-0  30643-3 0   508
2 25544  51.6368 340.6228 0008282 306.5890 183.4377 15.70145136340022
----
Via the sarex mailing list at AMSAT.ORG courtesy of AMSAT-NA.
To unsubscribe, send "unsubscribe sarex" to Majordomo@amsat.org



AMSAT Top AMSAT Home